DW2149 Weather Reports


time (UTC)temp
C
wind
direction
speed
KPH
gust
KPH
rain 1hr
cm
rain 24hr
cm
rain mn
cm
humidity
%
barometer
mb
20260901230943 24 212 1.6 11.3 0.00 0.00 0.00 33 1011.7
20260901230731 24 209 1.6 11.3 0.00 0.00 0.00 33 1011.7
20260901230524 23 220 0.0 6.4 0.00 0.00 0.00 34 1011.6
20260901230317 23 220 0.0 6.4 0.00 0.00 0.00 35 1011.7
20260901230115 24 196 0.0 4.8 0.00 0.00 0.00 35 1011.7
20260901225910 24 196 0.0 4.8 0.00 0.00 0.00 33 1011.7
20260901225658 25 210 0.0 9.7 0.00 0.00 0.00 34 1011.8
20260901225455 25 210 0.0 9.7 0.00 0.00 0.00 33 1011.8
20260901225242 24 211 0.0 9.7 0.00 0.00 0.00 33 1011.7
20260901225033 24 211 0.0 9.7 0.00 0.00 0.00 36 1011.7
20260901224637 23 211 1.6 12.9 0.00 0.00 0.00 36 1011.8
20260901224426 23 147 1.6 12.9 0.00 0.00 0.00 35 1011.8
20260901224037 23 190 0.0 12.9 0.00 0.00 0.00 34 1011.7
20260901223834 24 201 0.0 12.9 0.00 0.00 0.00 35 1011.9
20260901223630 24 210 1.6 12.9 0.00 0.00 0.00 36 1011.8
20260901223429 24 210 1.6 12.9 0.00 0.00 0.00 33 1011.9
20260901223216 24 212 1.6 12.9 0.00 0.00 0.00 35 1011.8
20260901223007 24 212 1.6 12.9 0.00 0.00 0.00 34 1011.9
20260901222759 24 212 0.0 8.0 0.00 0.00 0.00 34 1011.8
20260901222547 24 205 1.6 11.3 0.00 0.00 0.00 35 1011.8
20260901222340 25 204 1.6 11.3 0.00 0.00 0.00 33 1011.8
20260901222131 25 202 3.2 11.3 0.00 0.00 0.00 32 1011.8
20260901221921 25 277 3.2 11.3 0.00 0.00 0.00 33 1011.8
20260901221526 25 215 4.8 11.3 0.00 0.00 0.00 33 1012.0
20260901221323 25 227 3.2 9.7 0.00 0.00 0.00 33 1011.9
20260901221115 25 215 3.2 9.7 0.00 0.00 0.00 33 1011.8
20260901220903 25 225 3.2 9.7 0.00 0.00 0.00 33 1011.9
20260901220515 25 217 3.2 11.3 0.00 0.00 0.00 33 1012.0
20260901220313 25 227 3.2 11.3 0.00 0.00 0.00 33 1012.0
20260901220105 25 228 3.2 11.3 0.00 0.00 0.00 33 1012.0
20260901215853 25 209 3.2 11.3 0.00 0.00 0.00 31 1012.1
20260901215651 25 215 1.6 11.3 0.00 0.00 0.00 32 1012.0
20260901215444 25 228 1.6 12.9 0.00 0.00 0.00 32 1012.0
20260901215052 24 221 1.6 12.9 0.00 0.00 0.00 32 1012.1
20260901214704 24 215 1.6 12.9 0.00 0.00 0.00 37 1012.1
20260901214457 24 214 3.2 12.9 0.00 0.00 0.00 35 1012.0
20260901214254 25 142 3.2 12.9 0.00 0.00 0.00 32 1012.1
20260901214051 25 212 1.6 12.9 0.00 0.00 0.00 32 1012.1
20260901213654 24 214 1.6 12.9 0.00 0.00 0.00 33 1012.2
20260901213444 24 222 0.0 11.3 0.00 0.00 0.00 35 1012.1
20260901213054 24 85 1.6 9.7 0.00 0.00 0.00 36 1012.2
20260901212702 24 209 1.6 9.7 0.00 0.00 0.00 36 1012.2
20260901212457 24 209 1.6 9.7 0.00 0.00 0.00 33 1012.2
20260901212244 24 229 1.6 9.7 0.00 0.00 0.00 33 1012.2
20260901212038 24 224 1.6 9.7 0.00 0.00 0.00 36 1012.2
20260901211832 23 257 3.2 12.9 0.00 0.00 0.00 32 1012.2
20260901211436 24 207 1.6 12.9 0.00 0.00 0.00 33 1012.2
20260901211234 24 229 3.2 12.9 0.00 0.00 0.00 31 1012.1
20260901211033 24 229 1.6 12.9 0.00 0.00 0.00 33 1012.1
20260901210829 23 218 1.6 19.3 0.00 0.00 0.00 33 1012.2
20260901210619 23 217 1.6 19.3 0.00 0.00 0.00 32 1012.2
20260901210409 23 215 0.0 19.3 0.00 0.00 0.00 38 1012.3
20260901210202 23 179 1.6 19.3 0.00 0.00 0.00 39 1012.2
20260901205810 24 244 3.2 19.3 0.00 0.00 0.00 37 1012.2
20260901205559 24 244 3.2 19.3 0.00 0.00 0.00 41 1012.3
20260901205354 24 262 3.2 19.3 0.00 0.00 0.00 34 1012.3
20260901205146 24 191 3.2 19.3 0.00 0.00 0.00 37 1012.3
20260901204940 25 232 1.6 19.3 0.00 0.00 0.00 32 1012.3
20260901204730 25 210 1.6 9.7 0.00 0.00 0.00 32 1012.3
20260901204526 25 217 1.6 9.7 0.00 0.00 0.00 33 1012.3
20260901204313 24 217 1.6 11.3 0.00 0.00 0.00 32 1012.2
20260901204104 24 20 1.6 11.3 0.00 0.00 0.00 37 1012.3
20260901203856 24 48 1.6 11.3 0.00 0.00 0.00 37 1012.3
20260901203652 24 225 1.6 11.3 0.00 0.00 0.00 35 1012.3
20260901203113 24 210 1.6 12.9 0.00 0.00 0.00 36 1012.2
20260901202909 24 212 1.6 12.9 0.00 0.00 0.00 35 1012.3
20260901202657 24 249 1.6 12.9 0.00 0.00 0.00 37 1012.3
20260901202452 24 219 1.6 12.9 0.00 0.00 0.00 37 1012.2
20260901202239 23 218 1.6 12.9 0.00 0.00 0.00 37 1012.2
20260901201849 23 249 1.6 12.9 0.00 0.00 0.00 38 1012.3
20260901201636 23 198 1.6 12.9 0.00 0.00 0.00 38 1012.3
20260901201424 23 198 3.2 12.9 0.00 0.00 0.00 37 1012.4
20260901201217 23 219 1.6 9.7 0.00 0.00 0.00 37 1012.3
20260901201004 23 281 3.2 9.7 0.00 0.00 0.00 38 1012.4
20260901200756 23 207 3.2 9.7 0.00 0.00 0.00 39 1012.4
20260901200544 23 209 3.2 12.9 0.00 0.00 0.00 39 1012.4
20260901200339 23 213 3.2 12.9 0.00 0.00 0.00 39 1012.3
20260901195943 23 217 3.2 12.9 0.00 0.00 0.00 39 1012.4
20260901195735 23 202 3.2 12.9 0.00 0.00 0.00 39 1012.4
20260901195534 23 227 3.2 12.9 0.00 0.00 0.00 38 1012.4
20260901195325 23 211 1.6 12.9 0.00 0.00 0.00 40 1012.4
20260901195113 23 231 1.6 12.9 0.00 0.00 0.00 39 1012.4
20260901194904 23 215 3.2 12.9 0.00 0.00 0.00 41 1012.4
20260901194658 23 207 1.6 9.7 0.00 0.00 0.00 41 1012.4
20260901194454 22 242 3.2 9.7 0.00 0.00 0.00 42 1012.5
20260901194246 22 221 3.2 9.7 0.00 0.00 0.00 41 1012.5
20260901194039 22 208 3.2 9.7 0.00 0.00 0.00 40 1012.4
20260901193832 22 212 1.6 9.7 0.00 0.00 0.00 42 1012.5
20260901193621 22 207 3.2 9.7 0.00 0.00 0.00 40 1012.4
20260901193410 22 211 1.6 9.7 0.00 0.00 0.00 41 1012.4
20260901193208 22 221 1.6 9.7 0.00 0.00 0.00 41 1012.5
20260901192957 22 209 1.6 9.7 0.00 0.00 0.00 40 1012.5
20260901192751 22 209 1.6 12.9 0.00 0.00 0.00 40 1012.5
20260901192543 22 209 1.6 12.9 0.00 0.00 0.00 40 1012.5
20260901192341 22 209 1.6 12.9 0.00 0.00 0.00 41 1012.5
20260901192129 22 208 1.6 12.9 0.00 0.00 0.00 40 1012.5
20260901191922 22 208 1.6 12.9 0.00 0.00 0.00 42 1012.5
20260901191719 22 208 1.6 11.3 0.00 0.00 0.00 42 1012.5
20260901191514 22 209 3.2 11.3 0.00 0.00 0.00 43 1012.5
20260901191307 22 144 3.2 11.3 0.00 0.00 0.00 43 1012.5
20260901191102 22 211 3.2 11.3 0.00 0.00 0.00 42 1012.4
20260901190850 22 224 3.2 11.3 0.00 0.00 0.00 41 1012.5
20260901190645 22 231 1.6 9.7 0.00 0.00 0.00 41 1012.4
20260901190250 22 206 1.6 8.0 0.00 0.00 0.00 43 1012.4
20260901190040 22 206 0.0 8.0 0.00 0.00 0.00 42 1012.5
20260901185836 22 194 0.0 8.0 0.00 0.00 0.00 42 1012.5
20260901185630 22 209 0.0 8.0 0.00 0.00 0.00 43 1012.5
20260901185423 22 224 0.0 4.8 0.00 0.00 0.00 43 1012.6
20260901185215 22 212 1.6 4.8 0.00 0.00 0.00 41 1012.5
20260901184824 22 211 1.6 12.9 0.00 0.00 0.00 43 1012.5
20260901184614 22 212 1.6 12.9 0.00 0.00 0.00 44 1012.5
20260901184409 22 212 1.6 12.9 0.00 0.00 0.00 43 1012.5
20260901184207 21 218 1.6 9.7 0.00 0.00 0.00 43 1012.5
20260901183957 21 218 0.0 9.7 0.00 0.00 0.00 43 1012.5
20260901183749 21 216 0.0 9.7 0.00 0.00 0.00 44 1012.5
20260901183214 20 193 0.0 9.7 0.00 0.00 0.00 44 1012.5
20260901183008 20 175 0.0 1.6 0.00 0.00 0.00 44 1012.5
20260901182803 20 221 1.6 0.0 0.00 0.00 0.00 44 1012.4
20260901182557 20 221 1.6 9.7 0.00 0.00 0.00 44 1012.4
20260901182345 20 221 1.6 9.7 0.00 0.00 0.00 43 1012.5
20260901182133 20 227 1.6 9.7 0.00 0.00 0.00 44 1012.5
20260901181929 20 227 1.6 9.7 0.00 0.00 0.00 44 1012.4
20260901181718 20 223 1.6 8.0 0.00 0.00 0.00 44 1012.4
20260901181509 20 223 1.6 8.0 0.00 0.00 0.00 44 1012.4
20260901181307 20 209 1.6 8.0 0.00 0.00 0.00 44 1012.4
20260901181057 19 221 1.6 8.0 0.00 0.00 0.00 43 1012.4
20260901180701 19 215 1.6 8.0 0.00 0.00 0.00 45 1012.5
20260901180314 19 215 1.6 9.7 0.00 0.00 0.00 45 1012.5
20260901175857 19 215 1.6 9.7 0.00 0.00 0.00 45 1012.5
20260901175648 19 214 1.6 9.7 0.00 0.00 0.00 46 1012.5
20260901175445 19 214 1.6 0.0 0.00 0.00 0.00 46 1012.5
20260901175239 19 214 1.6 9.7 0.00 0.00 0.00 46 1012.6
20260901175029 18 211 1.6 9.7 0.00 0.00 0.00 46 1012.6
20260901174820 18 213 1.6 9.7 0.00 0.00 0.00 46 1012.5
20260901174609 18 213 1.6 9.7 0.00 0.00 0.00 46 1012.6
20260901174358 18 211 1.6 1.6 0.00 0.00 0.00 47 1012.6
20260901174155 18 211 1.6 9.7 0.00 0.00 0.00 47 1012.5
20260901173952 18 213 1.6 14.5 0.00 0.00 0.00 48 1012.4
20260901173739 18 204 1.6 14.5 0.00 0.00 0.00 49 1012.4
20260901173525 18 211 1.6 14.5 0.00 0.00 0.00 48 1012.5
20260901173310 18 211 1.6 14.5 0.00 0.00 0.00 49 1012.5
20260901173057 18 215 1.6 14.5 0.00 0.00 0.00 49 1012.4
20260901172850 18 239 1.6 14.5 0.00 0.00 0.00 50 1012.4
20260901172647 18 244 3.2 14.5 0.00 0.00 0.00 49 1012.3
20260901172257 17 242 1.6 14.5 0.00 0.00 0.00 49 1012.5
20260901172053 17 194 1.6 8.0 0.00 0.00 0.00 50 1012.4
20260901171847 17 237 1.6 8.0 0.00 0.00 0.00 50 1012.3
20260901171635 17 223 1.6 8.0 0.00 0.00 0.00 51 1012.3
20260901171423 17 223 1.6 8.0 0.00 0.00 0.00 52 1012.3
20260901171220 17 223 1.6 8.0 0.00 0.00 0.00 51 1012.3
20260901171018 17 223 1.6 8.0 0.00 0.00 0.00 51 1012.3
20260901170808 17 226 1.6 6.4 0.00 0.00 0.00 51 1012.3
20260901170602 17 225 0.0 6.4 0.00 0.00 0.00 51 1012.3
20260901170351 17 227 0.0 4.8 0.00 0.00 0.00 52 1012.3
20260901170141 17 227 0.0 4.8 0.00 0.00 0.00 52 1012.2
20260901165934 16 227 0.0 0.0 0.00 0.00 0.00 51 1012.2
20260901165723 16 227 1.6 0.0 0.00 0.00 0.00 52 1012.1
20260901165522 16 227 1.6 8.0 0.00 0.00 0.00 51 1012.1
20260901164949 16 227 1.6 8.0 0.00 0.00 0.00 53 1012.1
20260901164746 16 227 0.0 8.0 0.00 0.00 0.00 54 1012.1
20260901164533 16 233 0.0 6.4 0.00 0.00 0.00 55 1012.1
20260901164325 16 233 0.0 6.4 0.00 0.00 0.00 55 1012.1
20260901164118 15 234 0.0 6.4 0.00 0.00 0.00 55 1012.1
20260901163914 15 233 0.0 4.8 0.00 0.00 0.00 56 1012.1
20260901163708 15 233 0.0 4.8 0.00 0.00 0.00 58 1012.1
20260901163504 15 233 0.0 4.8 0.00 0.00 0.00 59 1012.1
20260901163258 15 234 0.0 4.8 0.00 0.00 0.00 59 1012.1
20260901163053 15 234 0.0 1.6 0.00 0.00 0.00 60 1012.1
20260901162849 15 234 1.6 9.7 0.00 0.00 0.00 60 1012.1
20260901162646 15 234 1.6 9.7 0.00 0.00 0.00 61 1012.0
20260901162257 14 215 1.6 9.7 0.00 0.00 0.00 62 1012.0
20260901162051 14 215 1.6 9.7 0.00 0.00 0.00 63 1011.9
20260901161653 13 208 0.0 6.4 0.00 0.00 0.00 65 1012.0
20260901161301 13 207 0.0 6.4 0.00 0.00 0.00 65 1011.9
20260901161054 13 209 0.0 4.8 0.00 0.00 0.00 66 1011.9
20260901160847 13 209 0.0 0.0 0.00 0.00 0.00 66 1011.9
20260901160641 13 209 0.0 6.4 0.00 0.00 0.00 66 1011.8
20260901160434 13 209 0.0 3.2 0.00 0.00 0.00 66 1011.8
20260901160227 13 209 0.0 4.8 0.00 0.00 0.00 67 1011.8
20260901160023 13 209 0.0 4.8 0.00 0.00 0.00 67 1011.8
20260901155815 12 209 0.0 4.8 0.00 0.00 0.00 67 1011.8
20260901155603 12 209 0.0 4.8 0.00 0.00 0.00 68 1011.8
20260901155356 12 209 0.0 4.8 0.00 0.00 0.00 69 1011.7
20260901155150 12 209 0.0 4.8 0.00 0.00 0.00 69 1011.7
20260901154942 12 209 0.0 4.8 0.00 0.00 0.00 70 1011.7
20260901154740 12 209 0.0 4.8 0.00 0.00 0.00 70 1011.8
20260901154537 12 209 0.0 4.8 0.00 0.00 0.00 71 1011.8
20260901154143 12 204 0.0 3.2 0.00 0.00 0.00 71 1011.7
20260901153936 12 204 0.0 0.0 0.00 0.00 0.00 72 1011.8
20260901153725 12 204 0.0 0.0 0.00 0.00 0.00 72 1011.7
20260901153523 11 204 0.0 0.0 0.00 0.00 0.00 72 1011.7
20260901153319 11 204 0.0 0.0 0.00 0.00 0.00 72 1011.7
20260901153107 11 204 0.0 0.0 0.00 0.00 0.00 72 1011.7
20260901152855 11 204 0.0 0.0 0.00 0.00 0.00 72 1011.7
20260901152504 11 204 0.0 0.0 0.00 0.00 0.00 71 1011.7
20260901152305 11 204 0.0 1.6 0.00 0.00 0.00 71 1011.6
20260901152052 11 204 0.0 0.0 0.00 0.00 0.00 71 1011.5
20260901151517 11 204 0.0 0.0 0.00 0.00 0.00 70 1011.4
20260901151314 11 204 0.0 0.0 0.00 0.00 0.00 70 1011.4
20260901150923 11 204 0.0 0.0 0.00 0.00 0.00 70 1011.4
20260901150714 11 204 0.0 0.0 0.00 0.00 0.00 70 1011.3
20260901150510 11 204 0.0 0.0 0.00 0.00 0.00 70 1011.3
20260901150308 11 204 0.0 0.0 0.00 0.00 0.00 70 1011.3
20260901150059 11 204 0.0 0.0 0.00 0.00 0.00 70 1011.3
20260901145857 11 204 0.0 0.0 0.00 0.00 0.00 69 1011.3
20260901145650 11 204 0.0 0.0 0.00 0.00 0.00 69 1011.3
20260901145442 11 204 0.0 0.0 0.00 0.00 0.00 69 1011.3
20260901145240 11 204 0.0 0.0 0.00 0.00 0.00 69 1011.2
20260901144850 11 204 0.0 0.0 0.00 0.00 0.00 69 1011.1
20260901144318 11 204 0.0 0.0 0.00 0.00 0.00 69 1011.0
20260901144116 11 204 0.0 0.0 0.00 0.00 0.00 69 1011.1
20260901143911 11 204 0.0 0.0 0.00 0.00 0.00 69 1011.1
20260901143700 11 204 0.0 0.0 0.00 0.00 0.00 69 1011.0
20260901143449 11 204 0.0 0.0 0.00 0.00 0.00 68 1011.0
20260901143053 11 204 0.0 0.0 0.00 0.00 0.00 68 1011.0
20260901142700 11 204 0.0 0.0 0.00 0.00 0.00 68 1011.0
20260901142448 11 204 0.0 0.0 0.00 0.00 0.00 68 1011.0
20260901142236 11 204 0.0 0.0 0.00 0.00 0.00 68 1011.0
20260901142022 11 204 0.0 0.0 0.00 0.00 0.00 68 1011.0
20260901141820 11 204 0.0 0.0 0.00 0.00 0.00 67 1011.0
20260901141428 11 204 0.0 0.0 0.00 0.00 0.00 67 1011.0
20260901141225 11 204 0.0 0.0 0.00 0.00 0.00 67 1010.9
20260901141015 11 204 0.0 0.0 0.00 0.00 0.00 67 1010.9
20260901140808 11 204 0.0 0.0 0.00 0.00 0.00 67 1010.9
20260901140556 11 204 0.0 0.0 0.00 0.00 0.00 67 1010.9
20260901140353 11 204 0.0 0.0 0.00 0.00 0.00 67 1010.9
20260901140150 11 204 0.0 0.0 0.00 0.00 0.00 67 1010.9
20260901135800 11 204 0.0 0.0 0.00 0.00 0.00 67 1011.0
20260901135551 11 204 0.0 0.0 0.00 0.00 0.00 67 1011.0
20260901135342 11 204 0.0 0.0 0.00 0.00 0.00 66 1011.0
20260901135134 11 204 0.0 0.0 0.00 0.00 0.00 66 1011.0
20260901134745 11 204 0.0 0.0 0.00 0.00 0.00 66 1010.9
20260901134539 11 204 0.0 0.0 0.00 0.00 0.00 66 1010.9
20260901134332 11 204 0.0 0.0 0.00 0.00 0.00 66 1010.8
20260901134127 11 204 0.0 0.0 0.00 0.00 0.00 66 1010.8
20260901133915 11 204 0.0 0.0 0.00 0.00 0.00 66 1010.7
20260901133703 11 204 0.0 0.0 0.00 0.00 0.00 66 1010.6
20260901133456 11 204 0.0 0.0 0.00 0.00 0.00 66 1010.6
20260901133103 11 204 0.0 0.0 0.00 0.00 0.00 66 1010.6
20260901132901 11 204 0.0 0.0 0.00 0.00 0.00 66 1010.6
20260901132654 11 204 0.0 0.0 0.00 0.00 0.00 66 1010.6
20260901132443 11 204 0.0 0.0 0.00 0.00 0.00 65 1010.6
20260901132232 11 204 0.0 0.0 0.00 0.00 0.00 66 1010.6
20260901131636 12 204 0.0 0.0 0.00 0.00 0.00 65 1010.7
20260901131431 12 204 0.0 0.0 0.00 0.00 0.00 65 1010.7
20260901131226 12 204 0.0 0.0 0.00 0.00 0.00 65 1010.6
20260901131014 12 204 0.0 0.0 0.00 0.00 0.00 65 1010.6
20260901130809 12 204 0.0 0.0 0.00 0.00 0.00 65 1010.7
20260901130604 12 204 0.0 0.0 0.00 0.00 0.00 65 1010.7
20260901130216 12 204 0.0 0.0 0.00 0.00 0.00 65 1010.8
20260901130015 12 204 0.0 0.0 0.00 0.00 0.00 65 1010.7
20260901125804 12 204 0.0 0.0 0.00 0.00 0.00 65 1010.7
20260901125601 12 204 0.0 0.0 0.00 0.00 0.00 65 1010.6
20260901125349 12 204 0.0 0.0 0.00 0.00 0.00 65 1010.6
20260901125139 12 204 0.0 0.0 0.00 0.00 0.00 65 1010.7
20260901124932 12 204 0.0 0.0 0.00 0.00 0.00 65 1010.7
20260901124723 12 204 0.0 0.0 0.00 0.00 0.00 65 1010.8
20260901124520 12 204 0.0 0.0 0.00 0.00 0.00 65 1010.8
20260901124133 12 204 0.0 0.0 0.00 0.00 0.00 65 1010.7
20260901123931 12 204 0.0 0.0 0.00 0.00 0.00 65 1010.7
20260901123722 12 204 0.0 0.0 0.00 0.00 0.00 65 1010.7
20260901123510 12 204 0.0 0.0 0.00 0.00 0.00 65 1010.7
20260901123114 12 204 0.0 0.0 0.00 0.00 0.00 65 1010.6
20260901122907 12 204 0.0 0.0 0.00 0.00 0.00 65 1010.7
20260901122659 12 204 0.0 0.0 0.00 0.00 0.00 65 1010.6
20260901122457 12 204 0.0 0.0 0.00 0.00 0.00 65 1010.6
20260901122249 12 204 0.0 0.0 0.00 0.00 0.00 65 1010.6
20260901122037 12 204 0.0 0.0 0.00 0.00 0.00 65 1010.6
20260901121642 12 204 0.0 0.0 0.00 0.00 0.00 65 1010.7
20260901121434 12 204 0.0 0.0 0.00 0.00 0.00 65 1010.7
20260901121221 12 204 0.0 0.0 0.00 0.00 0.00 65 1010.6
20260901121014 12 204 0.0 0.0 0.00 0.00 0.00 65 1010.6
20260901120616 12 204 0.0 0.0 0.00 0.00 0.00 65 1010.6
20260901120410 12 204 0.0 0.0 0.00 0.00 0.00 65 1010.5
20260901120157 12 204 0.0 0.0 0.00 0.00 0.00 64 1010.5
20260901115802 12 204 0.0 0.0 0.00 0.00 0.00 65 1010.5
20260901115412 12 204 0.0 0.0 0.00 0.00 0.00 65 1010.5
20260901115201 12 204 0.0 0.0 0.00 0.00 0.00 65 1010.4
20260901114950 12 204 0.0 0.0 0.00 0.00 0.00 65 1010.3
20260901114740 12 204 0.0 0.0 0.00 0.00 0.00 65 1010.3
20260901114201 12 204 0.0 0.0 0.00 0.00 0.00 65 1010.3
20260901113948 12 204 0.0 0.0 0.00 0.00 0.00 65 1010.3
20260901113744 12 204 0.0 0.0 0.00 0.00 0.00 65 1010.3
20260901113539 12 204 0.0 0.0 0.00 0.00 0.00 65 1010.3
20260901113327 12 204 0.0 0.0 0.00 0.00 0.00 65 1010.3
20260901113115 12 204 0.0 0.0 0.00 0.00 0.00 65 1010.3
20260901112903 12 204 0.0 1.6 0.00 0.00 0.00 65 1010.3
20260901112652 12 204 0.0 0.0 0.00 0.00 0.00 65 1010.4
20260901112444 12 204 0.0 0.0 0.00 0.00 0.00 64 1010.4
20260901112053 12 204 0.0 1.6 0.00 0.00 0.00 64 1010.3
20260901111851 13 204 0.0 0.0 0.00 0.00 0.00 64 1010.3
20260901111642 12 204 0.0 0.0 0.00 0.00 0.00 64 1010.2
20260901111253 13 204 0.0 0.0 0.00 0.00 0.00 64 1010.2
20260901111040 13 204 0.0 0.0 0.00 0.00 0.00 64 1010.2
20260901110651 13 204 0.0 0.0 0.00 0.00 0.00 64 1010.2
20260901110446 13 204 0.0 0.0 0.00 0.00 0.00 63 1010.2
20260901110240 13 204 0.0 0.0 0.00 0.00 0.00 63 1010.2
20260901110028 13 204 0.0 0.0 0.00 0.00 0.00 63 1010.2
20260901105638 13 204 0.0 0.0 0.00 0.00 0.00 63 1010.3
20260901105432 13 204 0.0 0.0 0.00 0.00 0.00 63 1010.3
20260901105219 13 204 0.0 0.0 0.00 0.00 0.00 63 1010.2
20260901105008 13 204 0.0 0.0 0.00 0.00 0.00 63 1010.3
20260901104800 13 204 0.0 0.0 0.00 0.00 0.00 63 1010.2
20260901104557 13 204 0.0 0.0 0.00 0.00 0.00 63 1010.2
20260901104346 13 204 0.0 0.0 0.00 0.00 0.00 63 1010.2
20260901104136 13 204 0.0 0.0 0.00 0.00 0.00 63 1010.2
20260901103932 13 204 0.0 0.0 0.00 0.00 0.00 62 1010.2
20260901103727 13 204 0.0 0.0 0.00 0.00 0.00 62 1010.2
20260901103522 13 204 0.0 0.0 0.00 0.00 0.00 62 1010.3
20260901103320 13 204 0.0 0.0 0.00 0.00 0.00 62 1010.3
20260901102932 13 204 0.0 0.0 0.00 0.00 0.00 62 1010.2
20260901102721 13 204 0.0 0.0 0.00 0.00 0.00 62 1010.2
20260901102519 13 204 0.0 0.0 0.00 0.00 0.00 62 1010.2
20260901102310 13 204 0.0 0.0 0.00 0.00 0.00 62 1010.2
20260901101918 13 204 0.0 0.0 0.00 0.00 0.00 62 1010.2
20260901101716 13 204 0.0 0.0 0.00 0.00 0.00 62 1010.2
20260901101327 13 204 0.0 0.0 0.00 0.00 0.00 62 1010.1
20260901101114 13 204 0.0 0.0 0.00 0.00 0.00 62 1010.1
20260901100910 13 204 0.0 0.0 0.00 0.00 0.00 62 1010.1
20260901100657 13 204 0.0 0.0 0.00 0.00 0.00 62 1010.1
20260901100302 13 204 0.0 0.0 0.00 0.00 0.00 62 1010.1
20260901100056 13 204 0.0 0.0 0.00 0.00 0.00 62 1010.1
20260901095514 13 204 0.0 0.0 0.00 0.00 0.00 61 1010.0
20260901095308 13 204 0.0 0.0 0.00 0.00 0.00 61 1010.1
20260901095102 13 204 0.0 0.0 0.00 0.00 0.00 61 1010.1
20260901094706 13 204 0.0 0.0 0.00 0.00 0.00 61 1010.1
20260901094312 13 204 0.0 0.0 0.00 0.00 0.00 61 1010.1
20260901094106 13 204 0.0 0.0 0.00 0.00 0.00 61 1010.2
20260901093859 13 204 0.0 0.0 0.00 0.00 0.00 61 1010.1
20260901093653 13 204 0.0 0.0 0.00 0.00 0.00 61 1010.1
20260901093450 13 204 0.0 0.0 0.00 0.00 0.00 61 1010.2
20260901093058 13 204 0.0 0.0 0.00 0.00 0.00 60 1010.1
20260901092711 13 204 0.0 0.0 0.00 0.00 0.00 60 1010.1
20260901092502 13 204 0.0 0.0 0.00 0.00 0.00 60 1010.1
20260901092258 13 204 0.0 0.0 0.00 0.00 0.00 61 1010.1
20260901092052 13 204 0.0 0.0 0.00 0.00 0.00 61 1010.1
20260901091850 13 204 0.0 0.0 0.00 0.00 0.00 60 1010.2
20260901091645 13 204 0.0 0.0 0.00 0.00 0.00 60 1010.2
20260901091439 13 204 0.0 0.0 0.00 0.00 0.00 60 1010.2
20260901091229 13 204 0.0 0.0 0.00 0.00 0.00 60 1010.2
20260901091024 13 204 0.0 0.0 0.00 0.00 0.00 60 1010.2
20260901090818 13 204 0.0 0.0 0.00 0.00 0.00 60 1010.2
20260901090615 13 204 0.0 0.0 0.00 0.00 0.00 60 1010.2
20260901090408 13 204 0.0 0.0 0.00 0.00 0.00 60 1010.2
20260901090157 13 204 0.0 0.0 0.00 0.00 0.00 60 1010.2
20260901085804 13 204 0.0 0.0 0.00 0.00 0.00 60 1010.2
20260901085553 13 204 0.0 0.0 0.00 0.00 0.00 60 1010.2
20260901085348 13 204 0.0 0.0 0.00 0.00 0.00 60 1010.3
20260901085140 13 204 0.0 0.0 0.00 0.00 0.00 60 1010.3
20260901084934 13 204 0.0 0.0 0.00 0.00 0.00 60 1010.3
20260901084727 13 204 0.0 0.0 0.00 0.00 0.00 60 1010.3
20260901084522 13 204 0.0 0.0 0.00 0.00 0.00 60 1010.2
20260901084313 13 204 0.0 0.0 0.00 0.00 0.00 60 1010.2
20260901084105 13 204 0.0 0.0 0.00 0.00 0.00 60 1010.2
20260901083854 13 204 0.0 0.0 0.00 0.00 0.00 60 1010.3
20260901083645 13 204 0.0 0.0 0.00 0.00 0.00 60 1010.3
20260901083441 13 204 0.0 0.0 0.00 0.00 0.00 60 1010.3
20260901083234 13 204 0.0 0.0 0.00 0.00 0.00 59 1010.3
20260901083032 13 204 0.0 0.0 0.00 0.00 0.00 59 1010.2
20260901082644 13 204 0.0 0.0 0.00 0.00 0.00 59 1010.2
20260901082435 13 204 0.0 0.0 0.00 0.00 0.00 59 1010.3
20260901082224 13 204 0.0 0.0 0.00 0.00 0.00 59 1010.2
20260901082018 13 204 0.0 0.0 0.00 0.00 0.00 59 1010.3
20260901081436 13 204 0.0 0.0 0.00 0.00 0.00 59 1010.3
20260901081225 13 204 0.0 0.0 0.00 0.00 0.00 59 1010.3
20260901080838 13 204 0.0 0.0 0.00 0.00 0.00 59 1010.4
20260901080445 13 204 0.0 0.0 0.00 0.00 0.00 59 1010.4
20260901080243 13 204 0.0 0.0 0.00 0.00 0.00 59 1010.3
20260901075709 13 204 0.0 0.0 0.00 0.00 0.00 59 1010.3
20260901075457 14 204 0.0 0.0 0.00 0.00 0.00 59 1010.3
20260901075253 14 204 0.0 0.0 0.00 0.00 0.00 59 1010.2
20260901075045 14 204 0.0 0.0 0.00 0.00 0.00 59 1010.2
20260901074836 14 204 0.0 0.0 0.00 0.00 0.00 59 1010.3
20260901074633 14 204 0.0 0.0 0.00 0.00 0.00 59 1010.3
20260901074427 14 204 0.0 0.0 0.00 0.00 0.00 59 1010.2
20260901074219 14 204 0.0 0.0 0.00 0.00 0.00 59 1010.3
20260901073832 14 204 0.0 0.0 0.00 0.00 0.00 59 1010.3
20260901073620 14 204 0.0 0.0 0.00 0.00 0.00 59 1010.3
20260901073414 14 204 0.0 0.0 0.00 0.00 0.00 59 1010.2
20260901073205 14 204 0.0 0.0 0.00 0.00 0.00 59 1010.2
20260901073003 14 204 0.0 0.0 0.00 0.00 0.00 59 1010.2
20260901072751 14 204 0.0 0.0 0.00 0.00 0.00 59 1010.3
20260901072544 14 204 0.0 0.0 0.00 0.00 0.00 59 1010.2
20260901072331 14 204 0.0 0.0 0.00 0.00 0.00 59 1010.2
20260901072123 14 204 0.0 0.0 0.00 0.00 0.00 59 1010.2
20260901071919 14 204 0.0 0.0 0.00 0.00 0.00 59 1010.1
20260901071714 14 204 0.0 0.0 0.00 0.00 0.00 58 1010.2
20260901071507 14 204 0.0 0.0 0.00 0.00 0.00 58 1010.2
20260901071302 14 204 0.0 0.0 0.00 0.00 0.00 58 1010.1
20260901071059 14 204 0.0 0.0 0.00 0.00 0.00 58 1010.1
20260901070847 14 204 0.0 0.0 0.00 0.00 0.00 58 1010.1
20260901070643 14 204 0.0 0.0 0.00 0.00 0.00 58 1010.1
20260901070430 14 204 0.0 0.0 0.00 0.00 0.00 58 1010.2
20260901070218 14 204 0.0 0.0 0.00 0.00 0.00 58 1010.2
20260901070015 14 204 0.0 0.0 0.00 0.00 0.00 58 1010.0
20260901065814 14 204 0.0 0.0 0.00 0.00 0.00 58 1010.1
20260901065610 15 204 0.0 0.0 0.00 0.00 0.00 58 1009.9
20260901065221 15 204 0.0 0.0 0.00 0.00 0.00 58 1010.0
20260901064826 15 204 0.0 0.0 0.00 0.00 0.00 57 1009.9
20260901064618 15 204 0.0 0.0 0.00 0.00 0.00 57 1009.9
20260901064226 15 204 0.0 0.0 0.00 0.00 0.00 57 1009.8
20260901064014 15 204 0.0 0.0 0.00 0.00 0.00 57 1009.9
20260901063807 15 204 0.0 0.0 0.00 0.00 0.00 57 1009.9
20260901063605 15 204 0.0 0.0 0.00 0.00 0.00 57 1009.9
20260901063357 15 204 0.0 0.0 0.00 0.00 0.00 57 1009.8
20260901063148 15 204 0.0 0.0 0.00 0.00 0.00 57 1009.9
20260901062942 15 204 0.0 0.0 0.00 0.00 0.00 57 1009.9
20260901062734 15 204 0.0 0.0 0.00 0.00 0.00 57 1009.9
20260901062345 15 204 0.0 0.0 0.00 0.00 0.00 56 1009.8
20260901061957 15 204 0.0 0.0 0.00 0.00 0.00 56 1009.8
20260901061747 15 204 0.0 0.0 0.00 0.00 0.00 56 1009.8
20260901061536 15 204 0.0 0.0 0.00 0.00 0.00 56 1009.8
20260901061332 15 204 0.0 0.0 0.00 0.00 0.00 56 1009.8
20260901061125 15 204 0.0 0.0 0.00 0.00 0.00 56 1009.8
20260901060406 15 204 0.0 0.0 0.00 0.00 0.00 56 1009.8
20260901060205 15 204 0.0 0.0 0.00 0.00 0.00 55 1009.8
20260901055954 15 204 0.0 0.0 0.00 0.00 0.00 55 1009.7
20260901055749 15 204 0.0 0.0 0.00 0.00 0.00 55 1009.7
20260901055537 15 204 0.0 0.0 0.00 0.00 0.00 55 1009.7
20260901055139 16 204 0.0 0.0 0.00 0.00 0.00 55 1009.7
20260901054935 16 204 0.0 0.0 0.00 0.00 0.00 55 1009.7
20260901054729 16 204 0.0 0.0 0.00 0.00 0.00 55 1009.7
20260901054522 16 204 0.0 0.0 0.00 0.00 0.00 55 1009.8
20260901054312 16 204 0.0 0.0 0.00 0.00 0.00 55 1009.8
20260901054107 16 204 0.0 0.0 0.00 0.00 0.00 55 1009.8
20260901053857 16 204 0.0 0.0 0.00 0.00 0.00 55 1009.8
20260901053645 16 204 0.0 0.0 0.00 0.00 0.00 55 1009.8
20260901053257 16 204 0.0 0.0 0.00 0.00 0.00 54 1009.9
20260901053052 16 204 0.0 0.0 0.00 0.00 0.00 54 1009.8
20260901052842 16 204 0.0 0.0 0.00 0.00 0.00 54 1009.8
20260901052638 16 204 0.0 0.0 0.00 0.00 0.00 54 1009.8
20260901052239 16 204 0.0 0.0 0.00 0.00 0.00 54 1009.7
20260901052037 16 204 0.0 0.0 0.00 0.00 0.00 54 1009.7
20260901051829 16 204 0.0 0.0 0.00 0.00 0.00 54 1009.7
20260901051626 16 204 0.0 0.0 0.00 0.00 0.00 54 1009.7
20260901051415 16 204 0.0 0.0 0.00 0.00 0.00 54 1009.8
20260901051206 16 204 0.0 0.0 0.00 0.00 0.00 53 1009.7
20260901051000 16 204 0.0 0.0 0.00 0.00 0.00 53 1009.7
20260901050749 16 204 0.0 0.0 0.00 0.00 0.00 53 1009.7
20260901050541 16 204 0.0 0.0 0.00 0.00 0.00 53 1009.7
20260901050338 17 204 0.0 0.0 0.00 0.00 0.00 53 1009.7
20260901050125 17 204 0.0 0.0 0.00 0.00 0.00 53 1009.7
20260901045727 17 204 0.0 0.0 0.00 0.00 0.00 53 1009.7
20260901045525 17 204 0.0 0.0 0.00 0.00 0.00 52 1009.7
20260901045137 17 204 0.0 0.0 0.00 0.00 0.00 52 1009.7
20260901044929 17 204 0.0 0.0 0.00 0.00 0.00 52 1009.6
20260901044716 17 204 0.0 0.0 0.00 0.00 0.00 52 1009.6
20260901044513 17 204 0.0 0.0 0.00 0.00 0.00 51 1009.6
20260901044305 17 204 0.0 0.0 0.00 0.00 0.00 51 1009.6
20260901044104 17 204 0.0 0.0 0.00 0.00 0.00 51 1009.6
20260901043856 17 204 0.0 0.0 0.00 0.00 0.00 51 1009.7
20260901043654 17 204 0.0 0.0 0.00 0.00 0.00 51 1009.6
20260901043446 17 204 0.0 0.0 0.00 0.00 0.00 51 1009.7
20260901043243 17 204 0.0 0.0 0.00 0.00 0.00 51 1009.7
20260901043039 17 204 0.0 0.0 0.00 0.00 0.00 50 1009.6
20260901042832 17 204 0.0 0.0 0.00 0.00 0.00 50 1009.6
20260901042627 17 204 0.0 0.0 0.00 0.00 0.00 50 1009.6
20260901042418 18 204 0.0 0.0 0.00 0.00 0.00 50 1009.7
20260901042026 18 204 0.0 0.0 0.00 0.00 0.00 50 1009.7
20260901041640 18 204 0.0 0.0 0.00 0.00 0.00 49 1009.7
20260901041437 18 204 0.0 0.0 0.00 0.00 0.00 49 1009.5
20260901041231 18 204 0.0 0.0 0.00 0.00 0.00 49 1009.6
20260901041028 18 204 0.0 0.0 0.00 0.00 0.00 49 1009.6
20260901040823 18 204 0.0 0.0 0.00 0.00 0.00 49 1009.5
20260901040616 18 204 0.0 0.0 0.00 0.00 0.00 49 1009.5
20260901040409 18 204 0.0 0.0 0.00 0.00 0.00 49 1009.5
20260901040204 18 204 0.0 0.0 0.00 0.00 0.00 48 1009.5
20260901035951 18 204 0.0 0.0 0.00 0.00 0.00 48 1009.5
20260901035745 18 204 0.0 0.0 0.00 0.00 0.00 48 1009.5
20260901035542 18 204 0.0 0.0 0.00 0.00 0.00 48 1009.4
20260901035336 19 204 0.0 0.0 0.00 0.00 0.00 48 1009.4
20260901035125 19 204 0.0 0.0 0.00 0.00 0.00 47 1009.5
20260901034737 19 204 0.0 0.0 0.00 0.00 0.00 47 1009.4
20260901034535 19 204 0.0 0.0 0.00 0.00 0.00 47 1009.3
20260901034332 19 204 0.0 0.0 0.00 0.00 0.00 47 1009.3
20260901034127 20 204 0.0 0.0 0.00 0.00 0.00 46 1009.3
20260901033914 20 204 0.0 0.0 0.00 0.00 0.00 46 1009.2
20260901033704 20 204 0.0 0.0 0.00 0.00 0.00 46 1009.3
20260901033500 20 204 0.0 0.0 0.00 0.00 0.00 46 1009.2
20260901033254 20 204 0.0 0.0 0.00 0.00 0.00 46 1009.2
20260901033048 20 204 0.0 0.0 0.00 0.00 0.00 45 1009.1
20260901032845 20 204 0.0 0.0 0.00 0.00 0.00 45 1009.2
20260901032458 20 204 0.0 0.0 0.00 0.00 0.00 45 1009.1
20260901032250 20 204 0.0 0.0 0.00 0.00 0.00 45 1009.0
20260901032046 21 204 0.0 0.0 0.00 0.00 0.00 45 1009.1
20260901031653 21 204 0.0 0.0 0.00 0.00 0.00 44 1009.1
20260901031302 21 204 0.0 0.0 0.00 0.00 0.00 44 1009.0
20260901030912 21 204 0.0 0.0 0.00 0.00 0.00 44 1009.0
20260901030702 21 204 0.0 0.0 0.00 0.00 0.00 44 1008.9
20260901030455 21 204 0.0 0.0 0.00 0.00 0.00 44 1009.0
20260901025916 22 204 0.0 0.0 0.00 0.00 0.00 43 1008.9
20260901025713 22 204 0.0 0.0 0.00 0.00 0.00 43 1008.8
20260901025505 22 204 0.0 0.0 0.00 0.00 0.00 43 1008.8
20260901024932 22 204 0.0 0.0 0.00 0.00 0.00 43 1008.7
20260901024539 22 204 0.0 0.0 0.00 0.00 0.00 43 1008.7
20260901024334 22 204 0.0 0.0 0.00 0.00 0.00 42 1008.8
20260901023947 22 204 0.0 0.0 0.00 0.00 0.00 42 1008.8
20260901023744 22 204 0.0 0.0 0.00 0.00 0.00 42 1008.7
20260901023535 22 204 0.0 0.0 0.00 0.00 0.00 42 1008.7
20260901023138 23 204 0.0 0.0 0.00 0.00 0.00 42 1008.8
20260901022927 23 204 0.0 0.0 0.00 0.00 0.00 42 1008.7
20260901022724 23 204 0.0 0.0 0.00 0.00 0.00 42 1008.7
20260901022518 23 204 0.0 0.0 0.00 0.00 0.00 42 1008.7
20260901022129 23 204 0.0 0.0 0.00 0.00 0.00 41 1008.7
20260901021925 23 204 0.0 0.0 0.00 0.00 0.00 41 1008.7
20260901021717 23 204 0.0 0.0 0.00 0.00 0.00 40 1008.6
20260901021505 23 204 0.0 0.0 0.00 0.00 0.00 40 1008.6
20260901021302 23 204 0.0 0.0 0.00 0.00 0.00 40 1008.5
20260901021057 23 204 0.0 0.0 0.00 0.00 0.00 40 1008.6
20260901020848 23 204 0.0 0.0 0.00 0.00 0.00 40 1008.5
20260901020636 24 204 0.0 0.0 0.00 0.00 0.00 40 1008.5
20260901020425 24 204 0.0 0.0 0.00 0.00 0.00 40 1008.5
20260901020214 24 204 0.0 0.0 0.00 0.00 0.00 40 1008.5
20260901020006 24 204 0.0 0.0 0.00 0.00 0.00 40 1008.4
20260901015801 24 204 0.0 0.0 0.00 0.00 0.00 39 1008.5
20260901015554 24 204 0.0 0.0 0.00 0.00 0.00 39 1008.5
20260901015351 25 204 0.0 0.0 0.00 0.00 0.00 38 1008.5
20260901015139 25 204 0.0 0.0 0.00 0.00 0.00 38 1008.5
20260901014928 25 204 0.0 0.0 0.00 0.00 0.00 38 1008.5
20260901014722 25 204 0.0 0.0 0.00 0.00 0.00 38 1008.5
20260901014517 25 204 0.0 0.0 0.00 0.00 0.00 38 1008.5
20260901014306 25 204 0.0 0.0 0.00 0.00 0.00 38 1008.5
20260901014056 25 204 0.0 0.0 0.00 0.00 0.00 38 1008.5
20260901013845 25 204 0.0 0.0 0.00 0.00 0.00 37 1008.4
20260901013453 25 204 0.0 0.0 0.00 0.00 0.00 36 1008.5
20260901013250 25 204 0.0 0.0 0.00 0.00 0.00 35 1008.4
20260901012904 25 204 0.0 3.2 0.00 0.00 0.00 36 1008.5
20260901012509 25 204 0.0 3.2 0.00 0.00 0.00 35 1008.5
20260901012306 25 204 0.0 3.2 0.00 0.00 0.00 35 1008.5
20260901012100 26 204 0.0 3.2 0.00 0.00 0.00 36 1008.5
20260901011849 26 204 0.0 0.0 0.00 0.00 0.00 36 1008.5
20260901011643 26 204 0.0 3.2 0.00 0.00 0.00 35 1008.5
20260901011256 26 203 0.0 1.6 0.00 0.00 0.00 34 1008.5
20260901011044 26 215 0.0 1.6 0.00 0.00 0.00 34 1008.5
20260901010837 26 215 0.0 0.0 0.00 0.00 0.00 34 1008.5
20260901010627 26 215 0.0 11.3 0.00 0.00 0.00 34 1008.5
20260901010422 26 215 0.0 11.3 0.00 0.00 0.00 34 1008.4
20260901010030 26 215 0.0 3.2 0.00 0.00 0.00 35 1008.4
20260901005822 26 215 0.0 3.2 0.00 0.00 0.00 34 1008.4
20260901005435 26 215 0.0 3.2 0.00 0.00 0.00 33 1008.4
20260901005228 26 215 0.0 0.0 0.00 0.00 0.00 33 1008.4
20260901005021 27 215 0.0 1.6 0.00 0.00 0.00 33 1008.4
20260901004812 27 215 0.0 1.6 0.00 0.00 0.00 33 1008.4
20260901004605 27 215 0.0 1.6 0.00 0.00 0.00 33 1008.4
20260901004352 27 215 0.0 0.0 0.00 0.00 0.00 33 1008.4
20260901003957 27 215 0.0 11.3 0.00 0.00 0.00 32 1008.4
20260901003755 27 215 0.0 11.3 0.00 0.00 0.00 32 1008.5
20260901003548 27 213 0.0 4.8 0.00 0.00 0.00 33 1008.5
20260901003341 27 213 0.0 3.2 0.00 0.00 0.00 33 1008.6
20260901003135 27 213 0.0 3.2 0.00 0.00 0.00 33 1008.6
20260901002925 27 213 0.0 9.7 0.00 0.00 0.00 32 1008.6
20260901002713 27 213 0.0 9.7 0.00 0.00 0.00 32 1008.6
20260901002504 27 212 0.0 9.7 0.00 0.00 0.00 33 1008.6
20260901002257 27 212 0.0 9.7 0.00 0.00 0.00 32 1008.6
20260901002049 27 206 0.0 9.7 0.00 0.00 0.00 32 1008.6
20260901001848 27 212 0.0 9.7 0.00 0.00 0.00 32 1008.6
20260901001645 27 212 0.0 9.7 0.00 0.00 0.00 33 1008.7
20260901001439 27 212 0.0 9.7 0.00 0.00 0.00 32 1008.7
20260901001236 27 212 0.0 9.7 0.00 0.00 0.00 31 1008.7
20260901001033 28 215 0.0 9.7 0.00 0.00 0.00 31 1008.7
20260901000824 28 224 0.0 1.6 0.00 0.00 0.00 30 1008.7
20260901000429 28 224 1.6 8.0 0.00 0.00 0.00 31 1008.7
20260901000220 28 224 0.0 8.0 0.00 0.00 0.00 30 1008.7
20260901000010 28 224 0.0 8.0 0.00 0.00 0.00 31 1008.8
20260831235803 28 223 0.0 6.4 0.00 0.00 0.00 31 1008.7
20260831235600 28 214 0.0 6.4 0.00 0.00 0.00 31 1008.8
20260831235209 28 213 1.6 6.4 0.00 0.00 0.00 31 1008.8
20260831235006 28 213 1.6 11.3 0.00 0.00 0.00 31 1008.8
20260831234757 28 214 1.6 11.3 0.00 0.00 0.00 30 1008.7
20260831234359 28 213 3.2 11.3 0.00 0.00 0.00 30 1008.8
20260831233825 28 215 1.6 11.3 0.00 0.00 0.00 30 1008.9
20260831233621 28 217 1.6 11.3 0.00 0.00 0.00 31 1008.9
20260831233227 28 216 1.6 11.3 0.00 0.00 0.00 30 1008.9
20260831233018 28 219 1.6 0.0 0.00 0.00 0.00 30 1008.9
20260831232803 28 219 1.6 8.0 0.00 0.00 0.00 32 1008.9
20260831232409 28 211 1.6 8.0 0.00 0.00 0.00 31 1008.9
20260831232207 28 205 1.6 8.0 0.00 0.00 0.00 30 1009.0
20260831231816 28 225 1.6 8.0 0.00 0.00 0.00 31 1009.1
20260831231424 28 213 1.6 9.7 0.00 0.00 0.00 31 1009.0
20260831231214 28 220 1.6 9.7 0.00 0.00 0.00 30 1009.0